Location: *
(46.1333°S, 161.2167°W)
Time: 08:59:22
(UTC+00:00)

Cosmos 2298 Rocket - Pass Details

Date: 27 October 2020
Orbit: 776 x 783 km, 74.0° (Epoch: 04 December)

Event Time Altitude Azimuth Distance (km) Brightness Sun altitude
Exits shadow 12:46:51 24° 255° (WSW) 1,583 5.4 -23.2°
Maximum altitude 12:47:57 26° 235° (SW) 1,520 5.5 -23.1°
Drops below altitude 10° 12:52:28 10° 178° (S) 2,377 7.3 -22.6°
Sets 12:55:17 0° 165° (SSE) 3,313 8.4 -22.3°
